Location: Unspecified
(49.2170°N, 0.0000°E)
Time: 14:07:15
(UTC+00:00)

Vanguard 3 - Pass Details

Date: 30 January 2021
Orbit: 508 x 3261 km, 33.3° (Epoch: 28 February)

Event Time Altitude Azimuth Distance (km) Brightness Sun altitude
Rises 07:41:13 0° 255° (WSW) 4,416 10.5 0.3°
Reaches altitude 10° 07:45:50 10° 232° (SW) 3,968 10.5 0.9°
Maximum altitude 07:50:51 14° 204° (SSW) 4,150 10.9 1.6°
Drops below altitude 10° 07:57:02 10° 178° (S) 5,075 11.7 2.5°
Sets 08:04:48 0° 158° (SSE) 6,658 12.8 3.6°
